Time,TemperatureF,DewpointF,PressureIn,WindDirection,WindDirectionDegrees,WindSpeedMPH,WindSpeedGustMPH,Humidity,HourlyPrecipIn,Conditions,Clouds,dailyrainin,SolarRadiationWatts/m^2,SoftwareType,DateUTC
2013-02-20 00:06:00,48.4,39.0,29.75,ESE,118,8.0,13.0,69,0.00,,,0.00,0,weatherlink.com 1.10,2013-02-20 07:06:00,
2013-02-20 00:21:00,47.7,39.0,29.74,ESE,105,5.0,12.0,72,0.00,,,0.00,0,weatherlink.com 1.10,2013-02-20 07:21:00,
2013-02-20 00:36:00,48.1,39.0,29.74,ESE,123,5.0,14.0,70,0.00,,,0.00,0,weatherlink.com 1.10,2013-02-20 07:36:00,
2013-02-20 00:51:00,48.5,39.0,29.73,ESE,111,13.0,16.0,69,0.00,,,0.00,0,weatherlink.com 1.10,2013-02-20 07:51:00,
2013-02-20 01:06:00,48.6,38.0,29.72,ESE,117,10.0,16.0,67,0.00,,,0.00,0,weatherlink.com 1.10,2013-02-20 08:06:00,
2013-02-20 01:21:00,48.8,37.0,29.71,SE,128,11.0,18.0,64,0.00,,,0.00,0,weatherlink.com 1.10,2013-02-20 08:21:00,
2013-02-20 01:36:00,48.5,37.0,29.71,ESE,119,10.0,16.0,65,0.00,,,0.00,0,weatherlink.com 1.10,2013-02-20 08:36:00,
2013-02-20 01:51:00,48.2,37.0,29.70,ESE,123,7.0,16.0,65,0.00,,,0.00,0,weatherlink.com 1.10,2013-02-20 08:51:00,
2013-02-20 02:06:00,48.1,36.0,29.69,ESE,119,12.0,14.0,64,0.00,,,0.00,0,weatherlink.com 1.10,2013-02-20 09:06:00,
2013-02-20 02:21:00,48.7,37.0,29.69,ESE,118,14.0,17.0,64,0.00,,,0.00,0,weatherlink.com 1.10,2013-02-20 09:21:00,
2013-02-20 02:36:00,48.2,37.0,29.68,SE,128,16.0,17.0,66,0.00,,,0.00,0,weatherlink.com 1.10,2013-02-20 09:36:00,
2013-02-20 02:51:00,48.6,38.0,29.67,ESE,114,8.0,19.0,66,0.00,,,0.00,0,weatherlink.com 1.10,2013-02-20 09:51:00,
2013-02-20 03:07:00,48.4,37.0,29.67,ESE,113,14.0,17.0,65,0.00,,,0.00,0,weatherlink.com 1.10,2013-02-20 10:07:00,
2013-02-20 03:21:00,48.2,38.0,29.67,ESE,114,9.0,15.0,67,0.00,,,0.00,0,weatherlink.com 1.10,2013-02-20 10:21:00,
2013-02-20 03:36:00,47.7,38.0,29.68,SE,137,10.0,16.0,68,0.00,,,0.00,0,weatherlink.com 1.10,2013-02-20 10:36:00,
2013-02-20 03:51:00,47.7,38.0,29.67,ESE,119,10.0,13.0,68,0.00,,,0.00,0,weatherlink.com 1.10,2013-02-20 10:51:00,
2013-02-20 04:06:00,47.6,37.0,29.66,ESE,117,10.0,16.0,68,0.00,,,0.00,0,weatherlink.com 1.10,2013-02-20 11:06:00,
2013-02-20 04:21:00,47.2,37.0,29.66,ESE,120,11.0,15.0,69,0.00,,,0.00,0,weatherlink.com 1.10,2013-02-20 11:21:00,
2013-02-20 04:36:00,46.7,38.0,29.65,ESE,114,5.0,17.0,71,0.00,,,0.00,0,weatherlink.com 1.10,2013-02-20 11:36:00,
2013-02-20 04:51:00,46.7,37.0,29.65,ESE,108,9.0,15.0,69,0.00,,,0.00,0,weatherlink.com 1.10,2013-02-20 11:51:00,
2013-02-20 05:07:00,46.5,36.0,29.65,SE,138,6.0,16.0,68,0.00,,,0.00,0,weatherlink.com 1.10,2013-02-20 12:07:00,
2013-02-20 05:22:00,46.2,36.0,29.65,ESE,116,7.0,13.0,67,0.00,,,0.00,0,weatherlink.com 1.10,2013-02-20 12:22:00,
2013-02-20 05:37:00,46.3,35.0,29.64,ESE,120,7.0,13.0,65,0.00,,,0.00,0,weatherlink.com 1.10,2013-02-20 12:37:00,
2013-02-20 05:52:00,46.4,34.0,29.64,ESE,118,8.0,11.0,63,0.00,,,0.00,0,weatherlink.com 1.10,2013-02-20 12:52:00,
2013-02-20 06:07:00,46.3,34.0,29.65,SE,126,6.0,13.0,62,0.00,,,0.00,0,weatherlink.com 1.10,2013-02-20 13:07:00,
2013-02-20 06:22:00,45.9,33.0,29.65,SE,126,4.0,10.0,62,0.00,,,0.00,0,weatherlink.com 1.10,2013-02-20 13:22:00,
2013-02-20 06:37:00,45.7,33.0,29.65,SE,128,8.0,9.0,62,0.00,,,0.00,0,weatherlink.com 1.10,2013-02-20 13:37:00,
2013-02-20 06:52:00,44.7,33.0,29.65,SE,130,3.0,7.0,65,0.00,,,0.00,9,weatherlink.com 1.10,2013-02-20 13:52:00,
2013-02-20 07:07:00,42.9,33.0,29.65,SE,130,1.0,5.0,69,0.00,,,0.00,16,weatherlink.com 1.10,2013-02-20 14:07:00,
2013-02-20 07:22:00,42.0,36.0,29.66,SE,130,0.0,0.0,79,0.00,,,0.00,60,weatherlink.com 1.10,2013-02-20 14:22:00,
2013-02-20 07:37:00,41.6,37.0,29.67,SE,130,0.0,0.0,85,0.00,,,0.00,97,weatherlink.com 1.10,2013-02-20 14:37:00,
2013-02-20 07:52:00,41.0,38.0,29.68,SE,130,0.0,0.0,88,0.00,,,0.00,86,weatherlink.com 1.10,2013-02-20 14:52:00,
2013-02-20 08:07:00,42.4,40.0,29.68,SE,130,0.0,0.0,90,0.00,,,0.00,232,weatherlink.com 1.10,2013-02-20 15:07:00,
2013-02-20 08:22:00,44.8,40.0,29.68,ESE,117,0.0,2.0,83,0.00,,,0.00,287,weatherlink.com 1.10,2013-02-20 15:22:00,
2013-02-20 08:37:00,46.4,38.0,29.69,ESE,117,0.0,0.0,73,0.00,,,0.00,336,weatherlink.com 1.10,2013-02-20 15:37:00,
2013-02-20 08:52:00,47.5,34.0,29.69,SSE,167,3.0,10.0,61,0.00,,,0.00,388,weatherlink.com 1.10,2013-02-20 15:52:00,
2013-02-20 09:07:00,48.1,30.0,29.68,South,180,3.0,12.0,50,0.00,,,0.00,438,weatherlink.com 1.10,2013-02-20 16:07:00,
2013-02-20 09:22:00,48.5,28.0,29.68,SSW,205,10.0,16.0,46,0.00,,,0.00,483,weatherlink.com 1.10,2013-02-20 16:22:00,
2013-02-20 09:37:00,49.4,29.0,29.68,SSW,198,10.0,19.0,46,0.00,,,0.00,527,weatherlink.com 1.10,2013-02-20 16:37:00,
2013-02-20 09:53:00,50.6,29.0,29.68,South,190,9.0,19.0,44,0.00,,,0.00,566,weatherlink.com 1.10,2013-02-20 16:53:00,
2013-02-20 10:08:00,51.4,24.0,29.67,SSW,194,19.0,22.0,34,0.00,,,0.00,605,weatherlink.com 1.10,2013-02-20 17:08:00,
2013-02-20 10:23:00,51.7,23.0,29.66,SSW,200,12.0,25.0,33,0.00,,,0.00,638,weatherlink.com 1.10,2013-02-20 17:23:00,
2013-02-20 10:38:00,53.0,24.0,29.66,South,191,12.0,18.0,33,0.00,,,0.00,668,weatherlink.com 1.10,2013-02-20 17:38:00,
2013-02-20 10:53:00,52.4,22.0,29.66,SSW,198,11.0,25.0,30,0.00,,,0.00,693,weatherlink.com 1.10,2013-02-20 17:53:00,
2013-02-20 11:08:00,53.8,23.0,29.66,SSW,212,12.0,23.0,30,0.00,,,0.00,715,weatherlink.com 1.10,2013-02-20 18:08:00,
2013-02-20 11:23:00,54.2,22.0,29.65,SW,225,14.0,24.0,28,0.00,,,0.00,722,weatherlink.com 1.10,2013-02-20 18:23:00,
2013-02-20 11:38:00,54.5,21.0,29.64,South,179,13.0,24.0,27,0.00,,,0.00,738,weatherlink.com 1.10,2013-02-20 18:38:00,
2013-02-20 11:53:00,55.2,19.0,29.63,SSE,165,13.0,33.0,24,0.00,,,0.00,712,weatherlink.com 1.10,2013-02-20 18:53:00,
2013-02-20 12:08:00,56.2,19.0,29.62,SSW,198,25.0,26.0,23,0.00,,,0.00,700,weatherlink.com 1.10,2013-02-20 19:08:00,
2013-02-20 12:23:00,55.4,19.0,29.61,South,176,14.0,34.0,24,0.00,,,0.00,540,weatherlink.com 1.10,2013-02-20 19:23:00,
2013-02-20 12:38:00,55.7,17.0,29.60,South,188,19.0,36.0,22,0.00,,,0.00,432,weatherlink.com 1.10,2013-02-20 19:38:00,
2013-02-20 12:53:00,55.7,17.0,29.59,South,188,18.0,31.0,22,0.00,,,0.00,708,weatherlink.com 1.10,2013-02-20 19:53:00,
2013-02-20 13:08:00,56.8,19.0,29.58,SW,216,18.0,33.0,23,0.00,,,0.00,708,weatherlink.com 1.10,2013-02-20 20:08:00,
2013-02-20 13:23:00,57.2,18.0,29.57,SSW,209,7.0,35.0,22,0.00,,,0.00,657,weatherlink.com 1.10,2013-02-20 20:23:00,
2013-02-20 13:38:00,57.8,18.0,29.56,SSE,168,22.0,34.0,21,0.00,,,0.00,608,weatherlink.com 1.10,2013-02-20 20:38:00,
2013-02-20 13:53:00,57.7,17.0,29.55,South,191,24.0,30.0,20,0.00,,,0.00,517,weatherlink.com 1.10,2013-02-20 20:53:00,
2013-02-20 14:08:00,57.6,17.0,29.55,SW,218,23.0,29.0,20,0.00,,,0.00,571,weatherlink.com 1.10,2013-02-20 21:08:00,
2013-02-20 14:23:00,57.0,18.0,29.55,SSW,201,14.0,28.0,22,0.00,,,0.00,584,weatherlink.com 1.10,2013-02-20 21:23:00,
2013-02-20 14:38:00,57.0,18.0,29.54,SSW,211,10.0,25.0,22,0.00,,,0.00,538,weatherlink.com 1.10,2013-02-20 21:38:00,
2013-02-20 14:53:00,57.2,20.0,29.53,SW,234,16.0,20.0,23,0.00,,,0.00,517,weatherlink.com 1.10,2013-02-20 21:53:00,
2013-02-20 15:08:00,57.0,19.0,29.53,SW,227,14.0,25.0,23,0.00,,,0.00,496,weatherlink.com 1.10,2013-02-20 22:08:00,
2013-02-20 15:23:00,56.9,19.0,29.52,SW,234,11.0,24.0,23,0.00,,,0.00,459,weatherlink.com 1.10,2013-02-20 22:23:00,
2013-02-20 15:38:00,57.0,19.0,29.52,WSW,242,18.0,24.0,23,0.00,,,0.00,425,weatherlink.com 1.10,2013-02-20 22:38:00,
2013-02-20 15:53:00,57.3,20.0,29.53,WSW,237,16.0,25.0,23,0.00,,,0.00,401,weatherlink.com 1.10,2013-02-20 22:53:00,
2013-02-20 16:09:00,56.3,20.0,29.52,SW,221,12.0,23.0,24,0.00,,,0.00,381,weatherlink.com 1.10,2013-02-20 23:09:00,
2013-02-20 16:24:00,56.6,18.0,29.52,SW,219,18.0,25.0,22,0.00,,,0.00,302,weatherlink.com 1.10,2013-02-20 23:24:00,
2013-02-20 16:39:00,56.1,20.0,29.52,SSW,202,15.0,23.0,24,0.00,,,0.00,278,weatherlink.com 1.10,2013-02-20 23:39:00,
2013-02-20 16:54:00,55.7,19.0,29.51,SSW,200,10.0,26.0,24,0.00,,,0.00,114,weatherlink.com 1.10,2013-02-20 23:54:00,
2013-02-20 17:09:00,54.9,20.0,29.51,WSW,238,14.0,27.0,25,0.00,,,0.00,144,weatherlink.com 1.10,2013-02-21 00:09:00,
2013-02-20 17:24:00,53.9,20.0,29.52,SW,234,19.0,22.0,27,0.00,,,0.00,90,weatherlink.com 1.10,2013-02-21 00:24:00,
2013-02-20 17:39:00,53.1,21.0,29.52,SW,224,10.0,26.0,28,0.00,,,0.00,39,weatherlink.com 1.10,2013-02-21 00:39:00,
2013-02-20 17:54:00,51.9,21.0,29.54,WSW,244,18.0,28.0,30,0.00,,,0.00,5,weatherlink.com 1.10,2013-02-21 00:54:00,
2013-02-20 18:09:00,47.0,29.0,29.55,WSW,247,14.0,25.0,49,0.00,,,0.00,0,weatherlink.com 1.10,2013-02-21 01:09:00,
2013-02-20 18:24:00,44.9,30.0,29.56,West,267,14.0,22.0,57,0.00,,,0.00,0,weatherlink.com 1.10,2013-02-21 01:24:00,
2013-02-20 18:39:00,43.1,32.0,29.57,WSW,256,6.0,19.0,65,0.00,,,0.00,0,weatherlink.com 1.10,2013-02-21 01:39:00,
2013-02-20 18:54:00,41.6,32.0,29.58,WSW,246,12.0,18.0,70,0.00,,,0.00,0,weatherlink.com 1.10,2013-02-21 01:54:00,
2013-02-20 19:09:00,39.7,32.0,29.60,West,261,16.0,27.0,75,0.00,,,0.00,0,weatherlink.com 1.10,2013-02-21 02:09:00,
2013-02-20 19:24:00,38.7,30.0,29.63,WSW,247,22.0,27.0,72,0.00,,,0.00,0,weatherlink.com 1.10,2013-02-21 02:24:00,
2013-02-20 19:39:00,36.4,31.0,29.66,WSW,250,23.0,28.0,80,0.00,,,0.00,0,weatherlink.com 1.10,2013-02-21 02:39:00,
2013-02-20 19:54:00,35.1,32.0,29.65,WNW,284,14.0,22.0,87,0.00,,,0.00,0,weatherlink.com 1.10,2013-02-21 02:54:00,
2013-02-20 20:09:00,35.2,32.0,29.67,WSW,252,5.0,14.0,88,0.00,,,0.00,0,weatherlink.com 1.10,2013-02-21 03:09:00,
2013-02-20 20:24:00,35.3,31.0,29.68,WNW,290,7.0,12.0,84,0.00,,,0.00,0,weatherlink.com 1.10,2013-02-21 03:24:00,
2013-02-20 20:39:00,35.7,30.0,29.68,WNW,296,6.0,13.0,80,0.00,,,0.00,0,weatherlink.com 1.10,2013-02-21 03:39:00,
2013-02-20 20:54:00,36.5,27.0,29.67,West,272,4.0,16.0,69,0.00,,,0.00,0,weatherlink.com 1.10,2013-02-21 03:54:00,
2013-02-20 21:09:00,36.7,26.0,29.65,WNW,302,5.0,12.0,65,0.00,,,0.00,0,weatherlink.com 1.10,2013-02-21 04:09:00,
2013-02-20 21:24:00,36.6,26.0,29.68,SSW,210,9.0,18.0,65,0.00,,,0.00,0,weatherlink.com 1.10,2013-02-21 04:24:00,
2013-02-20 21:39:00,35.3,27.0,29.69,WSW,251,5.0,13.0,71,0.00,,,0.00,0,weatherlink.com 1.10,2013-02-21 04:39:00,
2013-02-20 21:54:00,34.7,28.0,29.69,SW,236,6.0,10.0,75,0.00,,,0.00,0,weatherlink.com 1.10,2013-02-21 04:54:00,
2013-02-20 22:09:00,34.5,28.0,29.70,SW,219,0.0,9.0,77,0.00,,,0.00,0,weatherlink.com 1.10,2013-02-21 05:09:00,
2013-02-20 22:24:00,34.0,27.0,29.70,SSW,204,5.0,10.0,74,0.00,,,0.00,0,weatherlink.com 1.10,2013-02-21 05:24:00,
2013-02-20 22:39:00,33.7,26.0,29.70,SW,214,8.0,14.0,72,0.00,,,0.00,0,weatherlink.com 1.10,2013-02-21 05:39:00,
2013-02-20 22:54:00,33.4,25.0,29.71,SW,219,4.0,12.0,70,0.00,,,0.00,0,weatherlink.com 1.10,2013-02-21 05:54:00,
2013-02-20 23:09:00,33.1,24.0,29.71,SSW,202,7.0,12.0,69,0.00,,,0.00,0,weatherlink.com 1.10,2013-02-21 06:09:00,
2013-02-20 23:24:00,32.7,22.0,29.71,SSW,211,7.0,13.0,65,0.00,,,0.00,0,weatherlink.com 1.10,2013-02-21 06:24:00,
2013-02-20 23:39:00,32.2,22.0,29.72,SSW,193,6.0,13.0,65,0.00,,,0.00,0,weatherlink.com 1.10,2013-02-21 06:39:00,
2013-02-20 23:54:00,31.9,22.0,29.73,SSW,203,6.0,10.0,66,0.00,,,0.00,0,weatherlink.com 1.10,2013-02-21 06:54:00,